Regional Weather Roundup
Issued by NWS

Home | Current Version | Previous Version | Graphics & Text | Print | Product List | Glossary On
Versions: 1 2 3 4 5 6 7 8 9 10 11 12 13 14 15 16 17 18 19 20 21 22 23 24 25 26 27 28 29 30 31 32 33 34 35 36 37 38 39 40 41 42 43 44 45 46 47 48 49 50
000
ASUS43 KFSD 250310
RWRSD

WEATHER ROUNDUP FOR SOUTH DAKOTA
NATIONAL WEATHER SERVICE SIOUX FALLS SD
1000 PM CDT FRI MAR 24 2017

NOTE: "FAIR" INDICATES FEW OR NO CLOUDS BELOW 12,000 FEET WITH NO
SIGNIFICANT WEATHER AND/OR OBSTRUCTIONS TO VISIBILITY.


SDZ001>005-009-010-012>017-250400-
NORTHWEST AND NORTH CENTRAL SOUTH DAKOTA

CITY           SKY/WX    TMP DP  RH WIND       PRES   REMARKS
BUFFALO          N/A     44  34  67 SE14      29.95S
FAITH            N/A     45  33  63 SE17      30.07R
MOBRIDGE       CLEAR     41  30  65 E13       30.10R
$$

SDZ012>016-024>037-041>051-057-063-072>074-250400-
SOUTHWEST AND SOUTH CENTRAL SOUTH DAKOTA

CITY           SKY/WX    TMP DP  RH WIND       PRES   REMARKS
RAPID CTY ARPT CLEAR     42  29  59 SE7       30.06R
PIERRE         CLEAR     37  31  78 E7        30.12R
CUSTER         CLEAR     40  26  57 S5        30.10R
ELLSWORTH AFB  CLEAR     46  30  53 SE12      30.05R
PHILIP         CLEAR     39  30  70 E7        30.09R
PINE RIDGE     CLEAR     43  31  62 CALM      30.10R
SPEARFISH      FAIR      46  30  53 SE12      30.03F
WINNER         FAIR      36  29  75 S7        30.12S
$$

SDZ004>011-016>023-039-040-250400-
NORTHEAST SOUTH DAKOTA

CITY           SKY/WX    TMP DP  RH WIND       PRES   REMARKS
ABERDEEN       CLEAR     32  27  81 NE10      30.17R WCI  24
WATERTOWN      CLOUDY    34  32  92 E6        30.14F WCI  29
BROOKINGS      PTCLDY    36  33  89 NE8       30.12F
SISSETON         N/A     29  28  96 NW8       30.19R WCI  21
$$

SDZ017-020-022-023-036>040-048>070-250400-
SOUTHEAST SOUTH DAKOTA

CITY           SKY/WX    TMP DP  RH WIND       PRES   REMARKS
SIOUX FALLS    CLOUDY    39  35  86 NE16      30.13F
HURON          CLEAR     34  32  92 SE5       30.15S WCI  30
CHAMBERLAIN    CLEAR     39  35  85 NE3       30.14S
MITCHELL       CLOUDY    38  35  89 NE10      30.16F
YANKTON        CLOUDY    39  36  87 N13       30.12S
$$

ABBREVIATIONS USED IN REMARKS
   TC - TEMPERATURE IN CELSIUS
  WCI - WIND CHILL INDEX
   HX - HEAT INDEX
  VSB - VISIBILITY




USA.gov is the U.S. government's official web portal to all federal, state and local government web resources and services.